Regional Weather Roundup
Issued by NWS Albany, NY

Home | Current Version | Previous Version | Text Only | Print | Product List | Glossary On
Versions: 1 2 3 4 5 6 7 8 9 10 11 12 13 14 15 16 17 18 19 20 21 22 23 24 25 26 27 28 29 30 31 32 33 34 35 36 37 38 39 40 41 42 43 44 45 46 47 48 49 50
000
ASUS41 KALY 170110
RWRALY

NEW YORK STATE HOURLY WEATHER ROUNDUP
NATIONAL WEATHER SERVICE ALBANY NY
800 PM EST SAT DEC 16 2017

NOTE: "FAIR" INDICATES FEW OR NO CLOUDS BELOW 12,000 FEET WITH NO
SIGNIFICANT WEATHER AND/OR NO OBSTRUCTIONS TO VISIBILITY.

NYZ032-033-038>043-046>054-057>066-NYZ062>081-082-084-170200-
EAST


CITY           SKY/WX    TMP DP  RH WIND       PRES   REMARKS
ALBANY         PTCLDY    23  14  68 W6        30.15R WCI  16
GLENS FALLS    CLEAR      7   4  87 NW7       30.13R WCI  -5
POUGHKEEPSIE   CLOUDY    31  20  63 NE3       30.13R
NEWBURGH       CLOUDY    30  25  80 W9        30.12R WCI  22
MONTGOMERY     CLOUDY    31  20  63 VRB3      30.12R
WHITE PLAINS   CLOUDY    33  25  72 NW8       30.11R WCI  26
ISLIP          CLOUDY    36  27  69 NW8       30.12R WCI  30
NEW YORK CITY  CLOUDY    39  26  59 NW9       30.13R WCI  33
CENTRAL PARK   CLOUDY    37  25  61 W5        30.15R WCI  33
$$

NYZ005>009-017-018-044>046-055-056-170200-
CENTRAL


CITY           SKY/WX    TMP DP  RH WIND       PRES   REMARKS
FULTON         CLOUDY    14   5  67 CALM      30.16R
SYRACUSE       CLOUDY    20  19  96 W7        30.16R WCI  11
ROME           CLOUDY    10   9  95 CALM      30.17R
ELMIRA         CLOUDY    25  19  78 NE8       30.14R WCI  16
BINGHAMTON     CLOUDY    21  17  84 N6        30.08R WCI  13
MONTICELLO     CLOUDY    24  18  77 NW8       30.09R WCI  15
$$

NYZ026>034-041>043-087-170200-
NORTH


CITY           SKY/WX    TMP DP  RH WIND       PRES   REMARKS
WATERTOWN      CLOUDY     9   2  73 N6        30.17R WCI  -1
FORT DRUM      NOT AVBL
OGDENSBURG     FAIR      11   5  77 N8        30.18R WCI   0
MASSENA        CLEAR     11   4  73 W5        30.20R WCI   3
SARANAC LAKE   CLEAR      4   2  91 CALM      30.03R
PLATTSBURGH    CLEAR     13   4  67 CALM      30.15R
$$

NYZ001>004-010>016-019>021-085-170200-
WEST


CITY           SKY/WX    TMP DP  RH WIND       PRES   REMARKS
NIAGARA FALLS  CLOUDY    22  12  65 CALM      30.18R
BUFFALO        CLOUDY    23  17  78 CALM      30.17R
DUNKIRK        CLOUDY    25  22  88 NE8       30.16R WCI  16
JAMESTOWN      MIX PCPN  25  23  93 CALM      30.10R
WELLSVILLE     CLOUDY    25  20  81 CALM      30.07R
ROCHESTER      CLOUDY    23  12  62 W5        30.18R WCI  17
PENN YAN       CLOUDY    24  15  68 CALM      30.15R
$$

             KEY
       WCI = WIND CHILL INDEX
       VSB = VISIBILITY
       HX  = HEAT INDEX
$$



USA.gov is the U.S. government's official web portal to all federal, state and local government web resources and services.